GALAXY 18 (G-18)

Last updated on Fri Jul 11 2025 00:02:42 GMT+0000 (Coordinated Universal Time)

1 32951U 08024A 25191.54905788 .00000038 00000+0 00000+0 0 9997 2 32951 0.0163 51.5788 0003377 61.8593 249.9275 1.00270782 62663
UTC large
Height (km)
Speed (km/s)
/
Latitude / Longitude
Inclination (degrees)
Orbital Period (minutes)
Azimuth
Elevation
Range (km)
Doppler Factor

Next 0 passes for location: London (51.5072 / 0.1276)

Sorry there are no passes over London.